Regional Weather Roundup
Issued by NWS

Home | Current Version | Previous Version | Graphics & Text | Print | Product List | Glossary Off
Versions: 1 2 3 4 5 6 7 8 9 10 11 12 13 14 15 16 17 18 19 20 21 22 23 24 25 26 27 28 29 30 31 32 33 34 35 36 37 38 39 40 41 42 43 44 45 46 47 48 49 50

000
ASUS43 KDMX 272207
RWRIA

WEATHER ROUNDUP FOR IOWA
NATIONAL WEATHER SERVICE DES MOINES IA
500 PM CDT FRI MAR 27 2015

NOTE: "FAIR" INDICATES FEW OR NO CLOUDS BELOW 12,000 FEET WITH NO
SIGNIFICANT WEATHER AND/OR OBSTRUCTIONS TO VISIBILITY.

* - THESE STATIONS ARE NOT NWS STATIONS...THUS NOT UNDER NWS
QUALITY CONTROL.  THEY ALSO DO NOT REPORT WEATHER SUCH
AS PRECIPITATION OR FOG.

IAZ001>003-012>014-020>022-031>034-043>046-272300-
   NORTHWEST IOWA

CITY           SKY/WX    TMP DP  RH WIND       PRES   REMARKS
CARROLL *      SUNNY     37   7  28 SE5       30.12F WCI  34
CHEROKEE *     CLOUDY    37  12  35 SW8       30.13S WCI  31
DENISON *      SUNNY     37   9  30 VRB5G12   30.11F WCI  34
LE MARS *      PTSUNNY   37  14  38 S8G16     30.12F WCI  31
ORANGE CITY *  SUNNY     37   9  30 SW10      30.11F WCI  30
SHELDON *      PTSUNNY   34  14  44 SW8       30.11S WCI  27
SIOUX CITY     CLOUDY    39  12  33 S9        30.14F WCI  33
SPENCER        CLOUDY    36  12  37 SW7       30.11F WCI  30
STORM LAKE *   SUNNY     36  10  35 SW9       30.12F WCI  29
$$

IAZ055>058-069>071-079>083-090>094-272300-
   SOUTHWEST IOWA

CITY           SKY/WX    TMP DP  RH WIND       PRES   REMARKS
ATLANTIC *     SUNNY     39  12  33 SW5       30.14S
AUDUBON *      SUNNY     39   1  20 CALM      30.14S
CLARINDA *     PTSUNNY   39  14  35 CALM      30.17S
COUNCIL BLFS * SUNNY     39  14  35 SW9       30.15S WCI  33
CRESTON *      SUNNY     37  12  35 N5        30.14F WCI  34
HARLAN  *      SUNNY     39  12  33 SW7       30.17S WCI  34
LAMONI         CLOUDY    42  12  29 NW5       30.14F
RED OAK *      MOSUNNY   39  18  41 SW6       30.16S WCI  35
SHENANDOAH *   PTSUNNY   39  18  41 SW5       30.18R
$$

IAZ047>049-059>061-072>074-084-272300-
   CENTRAL IOWA

CITY           SKY/WX    TMP DP  RH WIND       PRES   REMARKS
AMES           PTSUNNY   38  10  31 CALM      30.15F
ANKENY *       SUNNY     39  10  30 N5        30.15F
CHARITON *     SUNNY     39   9  28 N6        30.15S WCI  35
DES MOINES     CLOUDY    40   8  26 NE5       30.15F
GRINNELL*      SUNNY     39  10  30 NW3       30.16F
KNOXVILLE *    SUNNY     37   7  28 CALM      30.14F
MARSHALLTOWN   MOSUNNY   37  12  35 VRB5      30.14F WCI  33
PELLA *        MOSUNNY   39  14  35 NW5       30.16F
PERRY *          N/A     39   7  26 CALM      30.14F
$$

IAZ004>006-015-016-023>025-035-036-272300-
   NORTH CENTRAL IOWA

CITY           SKY/WX    TMP DP  RH WIND       PRES   REMARKS
ALGONA *       SUNNY     36  12  38 W6        30.14F WCI  31
CLARION *      SUNNY     36  14  41 VRB3      30.15F
ESTHERVILLE    PTSUNNY   35  11  36 VRB5      30.11F WCI  31
FORT DODGE *   CLOUDY    37  12  35 CALM      30.15F
MASON CITY     SUNNY     35  10  35 VRB3      30.14F
FOREST CITY *  SUNNY     34  12  40 W3        30.13F
IOWA FALLS *     N/A     37  12  35 CALM      30.15F
$$

IAZ007>011-017>019-026>030-037>042-050>054-066-272300-
   NORTHEAST IOWA

CITY           SKY/WX    TMP DP  RH WIND       PRES   REMARKS
CEDAR RAPIDS   SUNNY     37   8  30 NW9       30.15F WCI  30
CHARLES CITY * SUNNY     32  14  47 NE9       30.16F WCI  24
CLINTON *      SUNNY     36   9  32 N7        30.19S WCI  30
DECORAH *      SUNNY     28   7  40 N6G12     30.16F WCI  22
DUBUQUE        SUNNY     34   8  33 NE7G17    30.15F WCI  28
MONTICELLO *   SUNNY     36  12  38 NW9       30.16S WCI  29
OELWEIN *      SUNNY     32  10  40 N7        30.17F WCI  26
WATERLOO       SUNNY     38   8  29 N8        30.15F WCI  32
$$

IAZ064-065-067-068-078-272300-
   EAST CENTRAL IOWA

CITY           SKY/WX    TMP DP  RH WIND       PRES   REMARKS
DAVENPORT      SUNNY     38   8  29 NW8       30.16F WCI  32
IOWA CITY      SUNNY     38   6  26 VRB3      30.18F
MT. PLEASANT * SUNNY     39   9  28 N7        30.16F WCI  34
MUSCATINE *    SUNNY     39   7  26 N10       30.18S WCI  32
QUAD CITIES    SUNNY     38   8  29 VRB5      30.16F WCI  34
$$

IAZ062-063-075>077-085>089-095>099-272300-
   SOUTHEAST IOWA

CITY           SKY/WX    TMP DP  RH WIND       PRES   REMARKS
BURLINGTON     SUNNY     39   9  29 N12       30.16F WCI  32
FAIRFIELD *    SUNNY     39   7  26 NW8G14    30.16F WCI  34
FORT MADISON * SUNNY     39  10  30 N12       30.16F WCI  32
KEOKUK *       SUNNY     41   9  26 N8        30.15F
OSKALOOSA *      N/A     39   9  28 N5        30.16F
CENTERVILLE *  SUNNY     39  10  30 NW6       30.16F WCI  35
OTTUMWA        SUNNY     40   7  25 MISG      30.15F
WASHINGTON *   SUNNY     39   9  28 N7        30.16F WCI  34
$$

ABBREVIATIONS USED IN REMARKS
   TC - TEMPERATURES IN CELSIUS
  WCI - WIND CHILL INDEX
   HX - HEAT INDEX
  VSB - VISIBILITY
$$




USA.gov is the U.S. government's official web portal to all federal, state and local government web resources and services.